Weather History for St. Augustine, FL

Change the Weather History Date:

Friday, November 30, 2012

  Actual Average Record
Temperature  
Mean Temperature 64 °F -  
Max Temperature 72 °F 67 °F 85 °F (1985)
Min Temperature 57 °F 50 °F 31 °F (1979)
Growing Degree Days 14 (Base 50)    
Moisture  
Dew Point 58 °F    
Average Humidity 83    
Maximum Humidity 97    
Minimum Humidity 59    
Precipitation  
Precipitation 0.00 in - - ()
Sea Level Pressure  
Sea Level Pressure 30.28 in    
Wind  
Wind Speed 6 mph (North)    
Max Wind Speed 13 mph    
Max Gust Speed -    
Visibility 10 miles    
Events      
Averages and records for this station are not official NWS values.
T = Trace of Precipitation, MM = Missing Value Source: NWS Daily Summary

Daily Weather History Graph

Daily Weather History Graph

Search for Another Location

Airport:

Trip Planner

Search our weather history database for the weather conditions in past years. The results will help you decide how hot, cold, wet, or windy it might be!

Date:

Astronomy

Nov. 30, 2012 Rise Set
Actual Time 7:03 AM EST 5:25 PM EST
Civil Twilight 6:37 AM EST 5:51 PM EST
Nautical Twilight 6:07 AM EST 6:20 PM EST
Astronomical Twilight 5:38 AM EST 6:49 PM EST
Moon 7:17 PM EST (11/30) 8:34 AM EST (11/30)
Length of Visible Light 11h 14m
Length of Day
10h 22m
Waning Gibbous, 96% of the Moon is Illuminated
Nov 30
Waning Gibbous
Dec 6
Last Quarter
Dec 13
New
Dec 20
First Quarter
Dec 28
Full

Hourly Weather History & Observations

Time (EST) Temp. Dew Point Humidity Pressure Visibility Wind Dir Wind Speed Gust Speed Precip Events Conditions
12:58 AM 57.9 °F 57.0 °F 97% 30.29 in 8.0 mi North 5.8 mph - N/A   Overcast
1:58 AM 57.9 °F 57.0 °F 97% 30.29 in 10.0 mi NW 5.8 mph - N/A   Partly Cloudy
2:58 AM 60.1 °F 55.9 °F 86% 30.28 in 10.0 mi NW 5.8 mph - N/A   Overcast
3:58 AM 57.9 °F 55.0 °F 90% 30.29 in 10.0 mi NW 4.6 mph - N/A   Mostly Cloudy
4:58 AM 57.0 °F 55.0 °F 93% 30.29 in 10.0 mi NW 4.6 mph - N/A   Mostly Cloudy
5:58 AM 57.0 °F 54.0 °F 89% 30.30 in 10.0 mi NW 4.6 mph - N/A   Mostly Cloudy
6:58 AM 57.0 °F 55.0 °F 93% 30.31 in 10.0 mi WNW 3.5 mph - N/A   Clear
7:58 AM 59.0 °F 57.0 °F 93% 30.32 in 10.0 mi North 5.8 mph - N/A   Clear
8:58 AM 64.9 °F 60.1 °F 84% 30.32 in 10.0 mi North 6.9 mph - N/A   Clear
9:58 AM 66.9 °F 60.1 °F 79% 30.33 in 10.0 mi North 8.1 mph - N/A   Clear
10:58 AM 69.1 °F 60.1 °F 73% 30.32 in 10.0 mi North 8.1 mph - N/A   Clear
11:58 AM 71.1 °F 57.9 °F 63% 30.30 in 10.0 mi NNE 8.1 mph - N/A   Partly Cloudy
12:58 PM 72.0 °F 57.0 °F 59% 30.28 in 10.0 mi NNE 9.2 mph - N/A   Clear
1:58 PM 72.0 °F 57.9 °F 61% 30.26 in 10.0 mi NNE 10.4 mph - N/A   Scattered Clouds
2:58 PM 71.1 °F 59.0 °F 66% 30.25 in 10.0 mi NNE 12.7 mph - N/A   Mostly Cloudy
3:58 PM 66.9 °F 60.1 °F 79% 30.25 in 10.0 mi NNE 10.4 mph - N/A   Overcast
4:58 PM 64.9 °F 60.1 °F 84% 30.25 in 10.0 mi NNE 6.9 mph - N/A   Mostly Cloudy
5:58 PM 64.0 °F 60.1 °F 87% 30.25 in 10.0 mi North 4.6 mph - N/A   Scattered Clouds
6:58 PM 64.0 °F 59.0 °F 84% 30.25 in 10.0 mi NW 3.5 mph - N/A   Overcast
7:58 PM 63.0 °F 59.0 °F 87% 30.27 in 10.0 mi North 6.9 mph - N/A   Mostly Cloudy
8:58 PM 63.0 °F 59.0 °F 87% 30.27 in 10.0 mi NNW 3.5 mph - N/A   Mostly Cloudy
9:58 PM 62.1 °F 59.0 °F 90% 30.27 in 10.0 mi North 3.5 mph - N/A   Overcast
10:58 PM 62.1 °F 59.0 °F 90% 30.27 in 10.0 mi NNW 5.8 mph - N/A   Overcast
11:58 PM 62.1 °F 59.0 °F 90% 30.26 in 10.0 mi Calm Calm - N/A   Overcast